Voltar ao catálogo

FENGYUN 1C DEB

AtivoPO
NORAD 31566·DEBRIS·🇨🇳 China

Lançado May 10, 1999 de Taiyuan Satellite Launch Center

Loading…

Próximas Passagens (próximas 24 horas)

TLE

AtualizadoSource: Space-Track

Época: Sep 13, 2026, 22:28 UTC

1 31566U 99025BZH 26256.93679078  .00003264  00000-0  10429-2 0  9999
2 31566  98.9359 332.4241 0023207 259.5905 158.5631 14.40238447  3463

Acompanhe FENGYUN 1C DEB em tempo real com AllMySat

Download on the App Store